Address 0xa59340a7670c014ac038105ec04495d796169c00

Txn Hash Method
Block
From
To
Value [Txn Fee]
0xa5fc859a361f992af1fbce779fc661a17b7c6cc91fdba7b23088ebe7e359d34a0x60806040110516292022-08-23 20:13:47166 days 9 hrs ago0xa59340a7670c014ac038105ec04495d796169c00OUT Create: Maximillion0 BTT69.7599
0xfe443aba5a2f2bad1b03105d3fb4a2f2ad0a5ecd3ea7b0fe1c77e52a04f147270x60806040110514902022-08-23 20:09:01166 days 9 hrs ago0xa59340a7670c014ac038105ec04495d796169c00OUT Create: AquariusLens0 BTT1,112.7393
0x942ddb0b626a1bccb6e6eb9000b16bce8dc6ea0949a6fb6440cb83eb49241d66Redeem104542742022-08-09 13:59:45180 days 15 hrs ago0xa59340a7670c014ac038105ec04495d796169c00OUT 0xaa288edc5b1520e6ca78818aa6b38aa54f2aa00f0 BTT94.131
0x181305ff8ac8d8a24912b6266a3cd6c488b6374948a068780eaa382a3af8d5faRepay Borrow104542262022-08-09 13:58:05180 days 15 hrs ago0xa59340a7670c014ac038105ec04495d796169c00OUT 0xaa288edc5b1520e6ca78818aa6b38aa54f2aa00f0 BTT41.9307
0x02b1df72ec579ba51acd57262464d401d68977d3cfcb141c5fd055e3471fcd79Repay Borrow104542012022-08-09 13:57:11180 days 15 hrs ago0xa59340a7670c014ac038105ec04495d796169c00OUT 0x31f967e30e51a12d52cf999ac747b40c15c4dc300 BTT46.3215
0x6e72a29b572e5008008b35073cf015a9f8e0ebfa80c75eef8c4fb19892481389Repay Borrow104541572022-08-09 13:55:43180 days 15 hrs ago0xa59340a7670c014ac038105ec04495d796169c00OUT 0x31f967e30e51a12d52cf999ac747b40c15c4dc300 BTT46.3215
0x14a85d78d9bb226909d655eb8442a46ceef4ab3bb00b4ed2d3f4fe96889e51c5Repay Borrow104541372022-08-09 13:54:59180 days 15 hrs ago0xa59340a7670c014ac038105ec04495d796169c00OUT 0x31f967e30e51a12d52cf999ac747b40c15c4dc300 BTT44.6448
0x0209ba4b55edac5bcc99464fc39cbb0b2fb0154bca42090244f5fe42a83e18beRepay Borrow104541072022-08-09 13:53:59180 days 15 hrs ago0xa59340a7670c014ac038105ec04495d796169c00OUT 0x94daeec1e1a374e7f59e78660c77b6c03cb79cbe0 BTT41.9307
0xb0e096183b93cd7c02860f5f8f79c570cfb05d2b0846123240a8be071e25d222Queue104539622022-08-09 13:49:01180 days 15 hrs ago0xa59340a7670c014ac038105ec04495d796169c00OUT 0xfa27f715b314001b1cd7bcdd6db139ebda04ea360 BTT40.9761
0x5afaa4c2bf0f6522ba202958821e99e723b41d1ccdbf06de323e5a1a2417cfceExecute104539302022-08-09 13:47:53180 days 15 hrs ago0xa59340a7670c014ac038105ec04495d796169c00OUT 0xfa27f715b314001b1cd7bcdd6db139ebda04ea360 BTT31.7682
0x6f2dc57e137ca882fb5c4710ab985b1876ffe17b49ff83a052a60157dd6aab15Queue104538982022-08-09 13:46:49180 days 15 hrs ago0xa59340a7670c014ac038105ec04495d796169c00OUT 0xfa27f715b314001b1cd7bcdd6db139ebda04ea360 BTT38.7243
0x7bec0b086386c71619d5b5a173ff74563fc4d3c5268367e7de41f82d7edfb8a6Cast Vote104370622022-08-09 4:08:05181 days 1 hr ago0xa59340a7670c014ac038105ec04495d796169c00OUT 0xfa27f715b314001b1cd7bcdd6db139ebda04ea360 BTT29.1252
0xbfd2d12bbe3d6dc6135fced509249fe993866e5fa7e3a02244b15bdd2fe79229Propose104370332022-08-09 4:07:03181 days 1 hr ago0xa59340a7670c014ac038105ec04495d796169c00OUT 0xfa27f715b314001b1cd7bcdd6db139ebda04ea360 BTT112.7118
0xa5a15d0a614d608f9a1067b6fcf0882a281286c0636ec67b906fa7f088adb655_set Voting Peri...104369322022-08-09 4:03:37181 days 1 hr ago0xa59340a7670c014ac038105ec04495d796169c00OUT 0xfa27f715b314001b1cd7bcdd6db139ebda04ea360 BTT8.8359
0xde308626e79979a7f1c181625cd85cb77ac9018714fb00cea845dbc89a844ee0_set Voting Dela...104368942022-08-09 4:02:17181 days 1 hr ago0xa59340a7670c014ac038105ec04495d796169c00OUT 0xfa27f715b314001b1cd7bcdd6db139ebda04ea360 BTT10.6704
0x716ad2a6e1fed8a92ae23328c438e9fe0f20f20cf2aea691d5da90ff88e60f6eExecute104368642022-08-09 4:01:17181 days 1 hr ago0xa59340a7670c014ac038105ec04495d796169c00OUT 0xfa27f715b314001b1cd7bcdd6db139ebda04ea360 BTT31.7682
0x987c3c876180715790c8dbee8ab69ff58c8ea8f90e070bbc429cd53400be93f6Queue104366992022-08-09 3:55:35181 days 1 hr ago0xa59340a7670c014ac038105ec04495d796169c00OUT 0xfa27f715b314001b1cd7bcdd6db139ebda04ea360 BTT52.3656
0xd86b0ba9a88853d90e08d0bfbe951506db863220f5071ca48b5b9b40e9a10e83Cast Vote104364052022-08-09 3:45:27181 days 2 hrs ago0xa59340a7670c014ac038105ec04495d796169c00OUT 0xfa27f715b314001b1cd7bcdd6db139ebda04ea360 BTT29.1252
0x10555902de6763e2e4367a00d150369e8daaa24cff91413046f44e7e72593401Propose104360772022-08-09 3:34:11181 days 2 hrs ago0xa59340a7670c014ac038105ec04495d796169c00OUT 0xfa27f715b314001b1cd7bcdd6db139ebda04ea360 BTT140.8962
0xb0b1e7086a327d6cc16fc7288dd9850b6478fce96430bdd455b5249a8132c660_set Implementat...104359072022-08-09 3:28:23181 days 2 hrs ago0xa59340a7670c014ac038105ec04495d796169c00OUT 0xfa27f715b314001b1cd7bcdd6db139ebda04ea360 BTT9.2091
0x946727e7e2cd3bac4c11f937c79f59b7f5e2991c225da58b7c6eaf13d0bb8cf70x60806040104358582022-08-09 3:26:41181 days 2 hrs ago0xa59340a7670c014ac038105ec04495d796169c00OUT Create: GovernorBravoDelegate0 BTT1,229.9847
0xfa21a91e36ebcde8bf0ee67802de18d0b252caed2cab5d001929614a7a203233Execute104255542022-08-08 21:32:29181 days 8 hrs ago0xa59340a7670c014ac038105ec04495d796169c00OUT 0xfa27f715b314001b1cd7bcdd6db139ebda04ea360 BTT30.3027
0xadb8838cd3d26d0e5bfa632f19ad44f21618e17fa207fbc12e90b82fc985a2cbQueue104252172022-08-08 21:20:55181 days 8 hrs ago0xa59340a7670c014ac038105ec04495d796169c00OUT 0xfa27f715b314001b1cd7bcdd6db139ebda04ea360 BTT38.7243
0xd1c811bb2491a3ca386645fa70c4a7960e0778b07160ac6ba4d615b6fccef7faCast Vote104249022022-08-08 21:10:05181 days 8 hrs ago0xa59340a7670c014ac038105ec04495d796169c00OUT 0xfa27f715b314001b1cd7bcdd6db139ebda04ea360 BTT29.1252
0x87292f8be654db6070d4e040ec42dd7d08a00ae7988c7514d374798a86a9ce0aCast Vote104247682022-08-08 21:05:29181 days 8 hrs ago0xa59340a7670c014ac038105ec04495d796169c00OUT 0xfa27f715b314001b1cd7bcdd6db139ebda04ea360 BTT10.8933
[ Download CSV Export 
Parent Txn Hash Block From To Value
Loading

Contract Name:
0

Compiler Version
0

Optimization Enabled:
0

Other Settings:
-NA-
Block Transaction Gas Used Reward
Age Block Fee Address BC Fee Address Voting Power Jailed Incoming
Block Uncle Number Difficulty Gas Used Reward
Loading